Dewpoint
29 29 30 33 34 35 38 37 38 35 37 41 46 51 59 61 60 60 60 58 57 57 58 58 58 59 59 58 58 57 57 56 56 55 55 55 55 55
27 28 29 31 32 34 36 36 36 35 34 41 44 49 56 59 60 60 60 59 55 55 55 55 56 58 58 58 57 57 57 56 55 55 55 55 55 56
26 26 27 29 31 32 34 33 33 34 32 36 44 48 51 58 58 60 60 60 58 53 53 53 54 55 56 56 56 56 56 56 55 55 55 55 55 56
25 25 26 27 28 29 31 31 31 32 32 32 38 47 50 55 57 58 58 59 59 55 52 52 52 53 54 55 55 55 55 55 54 54 54 55 55 56
24 24 25 27 27 28 29 29 30 30 32 32 34 43 50 52 56 58 58 58 59 58 51 50 51 51 51 52 52 53 53 53 53 53 53 54 54 55
24 25 25 27 28 29 28 28 29 30 30 32 34 40 49 52 56 56 57 58 57 58 54 52 50 50 50 51 51 52 52 52 52 52 52 52 52 53
24 25 26 27 29 29 28 28 28 28 30 29 32 42 47 50 53 56 55 56 57 58 55 53 52 50 49 48 51 50 50 51 51 51 51 51 51 52
23 24 25 26 26 26 27 27 29 27 28 26 28 32 44 49 55 55 54 52 51 56 55 52 53 51 52 50 49 49 48 49 50 50 50 50 50 50
23 22 23 25 23 25 25 25 28 28 28 26 27 29 31 37 49 54 54 53 53 54 55 52 51 52 53 52 50 48 48 48 48 48 49 48 48 48
22 22 21 21 21 21 24 24 26 27 27 28 29 30 31 34 38 39 42 49 47 48 53 50 46 51 51 53 50 48 47 47 47 47 47 47 47 46
16 19 20 18 18 19 22 22 23 23 27 28 29 31 32 32 35 39 38 43 43 45 44 49 43 47 46 48 48 48 47 46 46 46 46 46 46 45
16 16 16 17 17 18 20 20 20 20 25 26 27 27 29 30 31 33 32 35 37 43 40 45 43 46 48 42 43 43 44 43 44 44 44 44 44 44
15 15 16 16 16 16 17 18 20 22 24 25 26 27 27 26 29 29 31 32 32 36 34 38 41 42 46 45 42 42 41 39 41 41 42 42 43 44
15 15 16 15 15 15 16 16 17 20 22 23 24 24 24 24 27 28 30 31 32 32 34 34 37 40 43 43 45 40 38 38 40 40 40 40 41 41
14 15 14 14 14 15 15 15 16 18 19 19 19 21 23 27 26 26 29 31 34 34 34 34 34 36 39 41 42 41 41 37 37 39 39 38 39 39
13 14 14 14 13 13 14 14 14 15 16 17 19 21 21 23 22 25 26 28 31 32 35 34 34 35 36 37 40 40 41 42 36 37 37 38 38 39
13 13 13 12 11 11 12 12 13 13 14 16 16 17 18 19 20 23 25 26 27 28 30 33 35 34 34 35 36 38 38 38 37 35 36 36 35 35
11 11 11 11 11 10 11 11 12 13 14 14 16 16 16 17 19 20 22 23 24 25 27 29 31 33 34 34 35 36 36 37 35 34 35 35 34 34
10 9 10 10 10 10 10 10 11 13 14 14 15 15 16 17 18 18 19 20 21 22 24 26 29 31 30 32 35 32 35 35 33 32 33 33 33 32
9 9 9 9 9 9 10 10 11 12 13 14 15 15 16 16 17 17 18 19 20 20 22 24 27 29 29 29 29 32 31 33 33 32 30 29 29 30
8 8 9 9 9 9 10 11 12 13 14 14 14 15 16 16 16 17 18 19 19 20 21 23 25 26 26 30 29 31 31 31 33 32 30 29 28 29
8 8 8 9 9 9 10 11 10 11 12 13 14 15 15 16 16 17 17 18 19 20 21 23 25 26 26 27 28 31 30 30 31 30 29 30 29 28
8 8 8 9 9 8 9 9 10 10 11 11 12 12 14 14 16 17 17 18 19 20 21 22 24 26 26 27 29 31 29 28 28 28 29 30 30 27
Wind_Speed
20 21 21 20 19 20 19 20 23 28 31 31 32 29 27 27 30 30 32 35 45 46 45 44 42 38 39 41 42 41 41 40 39 39 39 38 37 36
19 23 23 20 20 17 21 17 21 24 34 30 35 32 28 28 29 33 32 31 38 41 44 44 43 43 40 40 43 43 43 42 40 40 39 38 38 37
23 23 24 23 20 17 19 18 20 20 29 32 32 37 35 33 29 28 28 28 31 42 42 42 42 41 40 40 42 44 44 43 42 41 40 40 39 38
25 24 24 21 23 22 20 24 23 23 25 31 33 36 38 35 31 30 32 28 27 31 40 41 40 42 43 43 45 45 45 43 42 42 42 41 41 40
25 24 24 23 23 21 23 24 24 23 23 24 32 33 35 32 31 31 28 24 22 23 36 38 39 39 38 39 40 42 42 42 42 41 41 42 41 40
23 23 24 23 24 26 26 26 24 25 23 25 28 30 33 34 32 28 26 23 23 21 22 26 31 36 37 39 39 41 40 42 44 45 44 42 41 41
21 21 21 23 23 24 25 27 26 24 21 23 28 25 31 30 41 28 26 18 22 20 16 18 19 20 22 28 34 38 40 43 44 45 45 44 44 43
23 22 21 22 23 26 31 32 27 24 22 22 25 23 29 31 23 23 23 15 16 14 19 17 19 19 20 20 28 31 36 39 41 41 41 42 42 43
21 22 21 19 25 26 30 32 24 25 20 22 23 20 24 11 11 26 24 23 20 13 18 15 17 18 16 16 25 31 32 36 35 36 38 38 39 41
20 18 21 23 25 31 28 28 23 21 22 21 21 19 19 24 6 4 3 8 4 8 13 15 11 13 15 14 24 29 32 32 32 34 35 35 36 37
23 19 20 23 30 32 26 26 24 21 21 26 26 20 18 21 15 6 9 9 3 6 7 9 8 9 8 12 12 22 27 29 31 32 32 33 33 35
23 22 22 25 30 29 24 22 27 24 24 21 19 19 20 18 16 17 12 8 5 2 6 5 9 8 6 3 6 10 10 16 21 24 26 26 25 20
23 23 23 31 29 27 26 22 24 28 24 17 17 15 16 20 20 19 13 11 8 4 7 9 2 5 4 5 3 4 6 5 6 8 14 19 18 20
22 23 23 32 28 25 23 28 27 21 20 17 14 15 19 20 19 18 15 12 5 4 11 12 5 3 4 4 5 3 5 4 4 5 5 8 13 17
22 24 26 27 25 20 23 24 22 21 20 19 20 19 19 15 15 16 13 13 11 12 12 8 7 3 3 4 5 4 5 2 4 4 7 9 10 7
25 20 20 21 20 20 21 21 18 19 20 20 21 18 19 18 19 18 15 15 9 9 4 8 9 2 1 2 2 2 4 4 4 4 5 4 4 5
25 19 19 21 22 22 21 21 21 22 23 22 21 21 20 18 18 17 15 12 10 9 9 10 7 4 2 1 3 6 6 4 5 4 3 3 2 3
19 19 19 20 21 23 23 22 21 23 22 21 20 20 20 18 16 15 14 13 9 8 9 9 10 7 2 1 4 3 3 4 4 6 3 4 3 2
17 18 20 21 21 20 21 22 23 21 21 19 20 20 19 19 18 16 15 14 14 13 13 10 8 7 3 2 2 2 3 4 5 5 4 3 2 2
17 18 19 20 21 21 21 21 22 21 21 21 20 21 20 19 18 17 16 15 14 13 11 9 6 6 4 4 4 3 2 3 4 5 4 3 6 7
18 18 18 19 20 21 21 21 21 21 21 21 20 19 19 19 18 17 15 15 15 11 11 10 9 10 9 6 4 3 2 2 1 4 6 6 4 3
18 19 18 18 19 20 21 21 21 21 21 21 21 20 20 19 19 19 18 17 15 14 13 12 11 8 6 7 7 3 2 3 6 8 5 4 4 6
18 19 19 18 18 19 20 20 21 21 21 21 21 20 20 19 18 17 17 17 17 16 15 14 11 9 8 9 8 5 4 5 4 4 3 4 5 3
Wind_Direction
310 306 299 292 291 286 286 286 279 289 279 277 272 264 238 225 225 218 216 211 205 202 204 206 205 207 207 204 204 206 209 209 210 212 214 213 214 218
311 311 303 296 294 287 280 288 281 281 282 279 270 271 246 228 222 216 220 214 208 208 207 206 203 203 207 206 205 205 207 207 207 210 213 214 214 215
314 313 306 303 298 296 284 281 282 282 278 287 271 269 258 232 224 217 216 206 213 206 206 206 204 204 203 204 206 206 207 207 206 207 209 213 214 216
317 313 308 310 305 299 296 294 288 282 277 286 276 276 248 237 226 217 217 217 214 209 208 208 208 206 204 206 210 207 205 206 207 207 207 210 212 214
317 314 312 312 310 309 307 301 298 289 285 284 280 277 257 241 231 221 215 212 212 213 202 206 209 208 203 204 205 204 201 203 204 206 206 207 210 212
318 314 312 312 313 316 314 310 307 301 295 297 286 267 265 239 226 211 206 202 203 206 202 206 210 208 204 203 207 203 204 206 205 204 205 205 207 209
321 318 314 311 317 320 316 313 311 310 302 304 297 278 260 246 221 208 206 195 202 199 194 201 202 207 209 208 213 208 207 209 208 209 207 208 207 209
324 325 318 320 328 323 320 317 310 311 312 310 308 298 280 225 211 196 194 186 198 187 189 190 188 202 205 200 211 212 211 210 208 208 208 208 211 213
326 326 326 328 330 328 323 319 314 313 310 301 305 320 320 301 200 193 191 195 201 176 187 191 184 202 196 196 201 208 209 208 208 210 210 211 211 210
331 329 330 330 332 330 328 318 326 322 320 322 318 336 336 302 57 74 114 175 131 163 174 188 177 193 183 197 197 205 209 210 212 210 212 212 213 214
336 340 335 337 333 332 331 324 325 327 324 335 339 333 319 2 24 97 86 143 153 181 196 161 176 167 184 199 193 205 210 211 212 213 214 215 215 216
336 339 340 344 337 338 338 337 331 335 327 336 335 334 340 353 3 46 53 95 77 85 3 180 150 151 165 187 182 189 189 216 214 215 216 218 216 217
334 337 338 341 340 342 346 346 340 333 335 341 339 338 342 2 10 26 30 53 54 63 0 4 191 143 104 127 123 144 174 146 181 207 213 222 214 208
335 333 335 335 340 342 349 347 348 348 338 346 355 352 360 347 5 13 11 28 39 9 330 339 344 68 117 139 139 131 98 141 169 172 172 196 204 212
341 326 333 336 338 346 348 354 355 349 349 357 350 357 355 356 5 6 9 13 27 38 34 6 307 322 24 61 116 124 133 123 149 161 180 191 183 175
339 332 337 343 344 348 354 355 1 354 354 355 349 349 354 2 9 9 7 10 16 16 34 50 0 334 56 232 235 204 147 133 140 170 153 168 171 183
326 340 348 352 351 352 355 356 354 359 2 353 350 354 359 4 6 6 6 5 16 4 338 359 8 5 24 135 206 211 202 187 170 168 167 172 171 180
341 349 350 352 353 349 350 351 355 356 355 349 349 355 355 359 1 3 1 2 2 360 327 347 7 350 360 240 247 199 177 189 162 169 165 187 183 161
355 351 350 350 349 351 349 348 350 350 346 350 345 350 351 350 358 3 3 3 354 349 333 335 6 337 297 199 110 358 188 156 158 165 163 149 136 139
357 351 349 347 346 346 348 346 345 345 348 346 345 348 351 352 355 357 354 348 343 331 328 343 8 348 340 7 352 14 17 129 162 160 145 100 81 98
351 349 348 346 344 343 344 344 343 344 345 345 346 343 344 346 345 344 340 338 336 344 339 335 339 331 307 296 261 245 105 51 65 149 147 136 141 157
347 345 345 344 344 343 341 342 343 345 346 346 341 340 342 339 338 338 339 335 334 329 324 322 322 320 299 268 266 252 125 93 77 96 83 97 155 200
344 343 341 343 343 342 341 341 341 341 342 339 337 337 335 334 332 331 329 330 331 331 329 329 327 306 272 266 278 254 153 158 142 133 93 33 27 57